RH
67 50 39 54 54 51 49 53 78 96 99 74 53 80 100 100 100 100 100 78 92 100 94 73 55 49 47 46 38 42 49 43
83 62 48 44 60 50 44 50 98 100 100 100 100 60 98 100 100 100 99 87 97 100 90 72 58 60 43 47 39 39 48 43
85 81 59 47 43 43 45 46 75 100 100 100 100 75 83 95 61 87 85 97 79 100 77 72 60 56 49 50 38 38 46 39
69 66 65 55 40 39 48 53 58 91 100 100 100 100 100 100 100 99 80 88 100 100 88 70 60 53 47 46 40 37 46 40
80 92 84 68 55 53 60 60 58 71 73 88 88 65 64 82 95 84 94 100 100 100 84 63 54 58 56 48 41 38 43 35
97 81 84 84 77 80 66 66 62 63 72 91 89 70 50 57 98 100 100 100 100 93 78 52 61 75 70 50 41 40 44 25
77 84 83 100 100 100 82 69 62 65 75 94 100 100 100 97 100 100 100 100 96 90 85 66 82 73 75 53 42 45 43 23
94 100 100 96 98 91 86 80 89 70 64 95 100 100 100 94 100 98 99 98 82 79 81 91 82 96 71 53 42 49 41 24
92 92 95 96 96 91 85 93 97 97 90 78 93 100 100 100 98 100 86 84 87 94 94 83 98 97 66 57 46 50 35 22
76 70 96 100 90 96 90 90 83 69 77 96 93 93 100 99 95 90 100 98 76 80 100 100 99 99 66 63 50 47 36 25
54 65 79 100 100 100 100 100 97 96 83 68 76 89 100 82 74 98 87 68 97 100 100 100 100 98 72 67 54 43 37 28
63 73 77 90 100 100 100 100 100 100 92 90 76 67 73 71 65 71 100 99 100 100 100 100 100 99 68 64 56 41 35 31
64 78 84 98 98 100 100 100 100 93 89 85 67 60 67 71 71 89 100 100 100 100 100 100 100 97 74 59 58 40 36 32
63 73 82 96 100 100 100 99 100 96 93 87 64 60 62 64 84 94 100 100 75 100 100 100 99 98 79 60 58 40 39 32
80 58 56 67 83 90 90 85 77 82 83 64 61 64 65 66 84 94 98 84 80 100 100 100 100 100 88 60 62 42 43 37
100 93 65 66 76 76 72 80 72 69 56 60 66 58 60 67 71 66 62 80 100 100 100 100 100 100 92 62 61 50 43 44
100 100 100 100 100 98 100 85 67 75 78 68 66 65 67 65 65 75 82 94 100 100 100 100 100 100 80 60 62 57 43 48
100 94 82 74 94 100 100 100 95 83 83 94 90 86 79 78 86 89 84 91 84 89 99 99 98 81 70 70 65 62 44 47
100 94 87 82 79 80 66 86 95 94 92 94 100 90 94 89 81 80 76 82 94 80 99 97 99 83 79 74 70 80 54 47
Wind_Speed
69 64 60 56 55 50 41 41 44 48 45 45 46 44 43 43 46 46 46 47 45 46 44 48 51 50 53 50 41 34 34 33
75 66 65 61 58 53 39 37 41 43 42 46 50 45 41 39 44 47 47 47 47 48 47 48 53 51 54 54 42 35 34 34
75 72 67 65 58 47 38 36 41 41 40 42 44 46 46 46 47 49 43 47 49 50 49 47 51 55 55 54 43 34 33 33
81 72 66 59 54 47 45 41 41 44 42 41 42 43 41 42 47 47 45 49 49 49 47 49 54 54 56 49 41 34 32 34
78 70 63 61 55 53 50 48 47 46 43 44 46 48 48 45 46 48 46 49 47 48 49 54 51 54 55 51 40 34 31 33
75 71 68 65 62 59 54 52 49 45 44 39 42 46 45 45 48 52 52 51 50 54 54 55 53 55 57 52 41 34 31 31
77 75 71 68 67 62 58 54 51 49 46 39 38 48 50 47 51 55 53 52 49 54 56 56 56 58 55 48 40 34 31 30
76 75 73 71 68 64 61 58 55 53 52 51 51 55 57 53 52 55 52 52 50 54 56 57 59 56 53 44 38 34 33 31
77 75 73 69 69 69 65 62 60 60 60 59 59 58 61 59 56 52 55 53 50 53 61 63 57 51 47 40 35 34 32 31
77 73 72 72 70 68 67 64 64 62 62 63 64 64 63 60 61 58 52 54 57 61 62 59 50 47 47 39 34 35 32 27
72 72 72 71 69 67 67 69 67 68 66 63 64 66 68 66 61 57 61 61 60 60 54 50 48 50 46 37 34 36 33 26
68 69 68 67 69 70 70 71 71 70 69 69 65 65 67 67 63 61 61 56 54 54 54 49 50 48 42 36 37 36 33 27
63 62 62 67 70 69 70 71 72 69 67 70 67 64 62 58 56 60 58 57 56 59 55 53 52 50 44 40 40 38 35 29
55 56 60 64 68 70 70 70 70 69 69 69 64 62 61 54 59 57 59 57 53 56 57 56 57 53 47 42 44 42 38 31
41 47 57 63 62 62 66 69 69 71 68 66 62 60 56 58 52 52 51 50 55 60 63 62 60 56 52 46 49 47 42 36
38 39 43 50 55 62 65 67 66 66 65 63 64 64 62 61 62 64 61 56 60 62 65 65 65 63 57 50 53 52 47 42
48 37 38 42 47 50 54 58 59 56 62 62 61 59 57 57 59 58 56 57 63 68 73 71 71 70 64 53 57 57 51 48
41 46 54 54 55 57 59 61 59 53 51 52 52 53 55 59 61 60 58 60 65 70 74 73 69 70 57 54 57 61 57 53
49 53 50 49 45 45 45 43 46 47 48 49 50 51 55 57 56 51 48 46 46 56 55 55 57 55 51 54 56 62 60 58
Wind_Direction
243 241 245 247 251 251 251 256 257 255 256 258 257 261 274 276 273 274 279 286 289 296 299 304 312 313 316 319 308 289 274 272
240 240 242 242 248 251 247 253 257 253 255 261 263 259 268 275 271 271 275 281 290 292 297 303 310 310 315 319 306 286 272 271
235 237 239 241 243 251 252 249 250 255 257 260 263 261 266 270 271 273 276 281 290 289 293 302 308 309 313 315 303 284 272 273
233 236 240 245 245 243 246 247 250 250 252 257 259 261 263 264 270 274 279 285 284 285 292 304 306 309 312 312 298 281 270 272
234 235 238 241 243 245 245 246 248 250 250 255 260 259 262 266 270 275 279 279 281 288 298 302 305 308 313 312 295 279 270 275
230 233 235 237 238 242 244 243 244 247 250 258 268 272 267 269 271 270 276 277 284 291 296 302 302 308 310 309 293 275 268 277
233 233 233 234 236 238 240 244 243 244 246 241 243 264 268 267 267 269 272 276 282 289 293 297 300 305 306 304 290 269 268 276
231 233 234 234 235 237 239 240 245 245 245 244 238 245 254 262 265 268 274 278 284 289 290 295 302 301 303 297 283 261 265 273
230 231 234 236 236 237 238 240 240 243 248 250 249 250 257 259 268 274 276 280 283 285 288 295 296 295 297 289 272 252 264 272
230 232 233 235 237 237 239 241 243 242 241 247 251 255 261 264 269 274 275 278 282 287 287 288 291 288 292 280 261 247 259 270
230 232 232 235 237 239 242 244 246 248 248 246 249 253 259 263 267 273 276 281 284 283 282 284 287 284 286 268 250 243 255 261
231 233 236 238 241 243 244 245 247 248 249 250 249 250 256 262 267 271 277 279 278 278 280 283 281 283 282 264 240 238 248 249
228 230 234 238 241 243 244 248 252 253 253 255 251 248 251 259 262 267 272 278 277 282 281 284 281 285 279 260 237 234 240 238
231 229 231 236 240 242 244 246 249 251 252 255 254 251 247 251 259 262 270 273 271 277 278 278 281 278 282 260 233 230 235 230
235 235 236 235 238 241 245 246 248 249 250 254 254 251 248 246 252 255 255 257 265 270 270 272 272 276 279 261 232 228 231 227
235 239 234 233 236 240 244 245 249 250 253 254 255 254 252 250 249 253 253 250 255 259 265 266 268 270 270 260 229 225 228 228
235 226 230 235 239 242 244 248 251 251 260 255 254 255 254 254 253 255 254 245 244 249 255 258 263 267 266 252 228 223 226 232
249 246 244 245 243 241 243 247 252 249 248 252 254 256 258 257 256 253 248 243 244 249 251 254 255 257 257 238 230 223 226 230
242 247 247 242 239 240 243 248 250 251 251 253 255 257 257 257 258 256 255 250 245 242 243 246 248 249 245 236 230 225 228 232